Location: Be?chatów
(51.3665°N, 19.3745°E)
Time: 17:02:47
(UTC+00:00)

Cosmos 44 Rocket - Pass Details

Date: 19 May 2025
Orbit: 651 x 728 km, 65.1° (Epoch: 21 June)

Event Time Altitude Azimuth Distance (km) Brightness Sun altitude
Rises 22:56:39 0° 319° (NW) 3,012 7.3 -18.5°
Reaches altitude 10° 22:59:04 10° 326° (NNW) 2,106 6.5 -18.5°
Maximum altitude 23:03:37 43° 39° (NE) 960 4.4 -18.4°
Drops below altitude 10° 23:08:16 10° 111° (ESE) 2,144 5.7 -18.4°
Sets 23:10:44 0° 118° (ESE) 3,071 6.4 -18.3°
